GW1109 Weather Reports


Display with metric or nautical units.
time (UTC)temp
F
wind
direction
speed
MPH
gust
MPH
rain 1hr
in
rain 24hr
in
rain mn
in
humidity
%
barometer
mb
20260510044548 52 0 0.0 3.0 0.00 0.58 0.00 100 1011.6
20260510043047 52 0 0.0 3.0 0.01 0.58 0.00 100 1011.6
20260510041601 51 0 0.0 2.0 0.01 0.58 0.00 100 1011.9
20260510040045 51 0 0.0 2.0 0.01 0.58 0.00 100 1011.9
20260510034556 51 0 0.0 3.0 0.01 0.58 0.58 100 1012.0
20260510033052 51 0 0.0 2.0 0.00 0.58 0.58 100 1012.2
20260510031553 51 61 0.0 1.0 0.00 0.58 0.58 100 1012.7
20260510030046 51 5 0.0 2.0 0.00 0.58 0.58 100 1012.6
20260510024604 51 0 0.0 0.0 0.01 0.58 0.58 100 1012.7
20260510023041 51 355 1.0 2.0 0.01 0.58 0.58 100 1012.6
20260510021548 50 355 2.0 4.0 0.02 0.58 0.58 100 1012.6
20260510020047 50 360 1.0 3.0 0.02 0.58 0.58 100 1012.7
20260510014608 50 9 0.0 2.0 0.01 0.57 0.57 100 1012.9
20260510013059 50 355 0.0 3.0 0.01 0.57 0.57 100 1012.9
20260510011544 50 0 0.0 2.0 0.01 0.56 0.56 100 1012.8
20260510010041 50 0 0.0 3.0 0.01 0.56 0.56 100 1012.7
20260510004555 50 19 1.0 4.0 0.01 0.56 0.56 100 1012.7
20260510003048 49 0 2.0 6.0 0.02 0.56 0.56 100 1012.5
20260510001546 49 80 2.0 6.0 0.03 0.55 0.55 100 1012.4
20260510000048 49 61 1.0 6.0 0.05 0.55 0.55 100 1012.2
20260509234546 49 0 0.0 5.0 0.06 0.55 0.55 100 1012.2
20260509233053 49 82 1.0 7.0 0.07 0.54 0.54 100 1012.0
20260509231557 49 94 0.0 5.0 0.07 0.52 0.52 100 1012.2
20260509230048 49 0 0.0 4.0 0.08 0.50 0.50 100 1012.5
20260509224546 49 0 1.0 5.0 0.09 0.49 0.49 100 1012.7
20260509223051 48 105 1.0 4.0 0.11 0.47 0.47 99 1012.8
20260509221547 48 61 3.0 9.0 0.10 0.45 0.45 99 1012.8
20260509220045 49 23 1.0 8.0 0.08 0.42 0.42 99 1012.9
20260509214550 49 170 2.0 8.0 0.08 0.40 0.40 98 1012.8
20260509213052 49 0 1.0 9.0 0.04 0.36 0.36 98 1013.1
20260509211554 49 123 0.0 7.0 0.03 0.35 0.35 98 1013.1
20260509210054 49 57 2.0 7.0 0.02 0.34 0.34 98 1013.3
20260509204547 49 126 1.0 7.0 0.00 0.32 0.32 98 1013.1
20260509203044 50 79 3.0 9.0 0.01 0.32 0.32 98 1012.7
20260509201542 50 31 1.0 8.0 0.03 0.32 0.32 98 1013.2
20260509200047 51 166 1.0 8.0 0.04 0.32 0.32 98 1012.8
20260509194546 50 109 1.0 5.0 0.06 0.32 0.32 98 1013.3
20260509193047 49 0 2.0 8.0 0.08 0.31 0.31 97 1013.8
20260509191546 49 86 2.0 6.0 0.09 0.29 0.29 96 1013.7
20260509190051 48 0 1.0 5.0 0.11 0.28 0.28 95 1014.0
20260509184546 48 0 1.0 4.0 0.13 0.26 0.26 94 1014.0
20260509183043 47 0 1.0 6.0 0.12 0.23 0.23 94 1014.3
20260509181544 47 136 0.0 6.0 0.12 0.20 0.20 92 1014.3
20260509180045 47 169 1.0 4.0 0.11 0.17 0.17 91 1014.4
20260509174541 47 0 0.0 4.0 0.09 0.13 0.13 89 1014.4
20260509173114 47 0 1.0 4.0 0.09 0.11 0.11 87 1014.4
20260509171548 47 147 1.0 6.0 0.07 0.08 0.08 86 1014.1
20260509170055 47 123 3.0 6.0 0.05 0.06 0.06 83 1014.2
20260509164544 47 162 2.0 4.0 0.04 0.04 0.04 80 1014.2
20260509163042 48 175 1.0 5.0 0.02 0.02 0.02 76 1014.3
20260509161549 49 80 1.0 6.0 0.01 0.01 0.01 73 1014.5
20260509160050 49 196 4.0 7.0 0.00 0.00 0.00 67 1014.6
20260509154547 49 176 3.0 7.0 0.00 0.00 0.00 65 1014.6
20260509153046 49 207 4.0 10.0 0.00 0.00 0.00 57 1014.7
20260509151602 50 236 3.0 8.0 0.00 0.00 0.00 56 1014.7
20260509150046 51 250 4.0 11.0 0.00 0.00 0.00 52 1014.6
20260509144540 51 156 7.0 17.0 0.00 0.00 0.00 46 1014.3
20260509143054 52 189 6.0 13.0 0.00 0.00 0.00 40 1014.0
20260509141549 53 217 3.0 12.0 0.00 0.00 0.00 43 1014.0
20260509140049 52 134 4.0 10.0 0.00 0.00 0.00 46 1014.0
20260509134547 52 185 4.0 9.0 0.00 0.00 0.00 41 1014.0
20260509133041 52 0 2.0 9.0 0.00 0.00 0.00 45 1014.0
20260509131559 52 217 5.0 9.0 0.00 0.00 0.00 44 1014.1
20260509130119 52 227 4.0 7.0 0.00 0.00 0.00 49 1014.3
20260509124549 51 233 2.0 6.0 0.00 0.00 0.00 48 1014.4
20260509123116 49 208 1.0 5.0 0.00 0.00 0.00 55 1014.4
20260509121542 48 258 3.0 5.0 0.00 0.00 0.00 56 1014.5
20260509120048 47 236 3.0 7.0 0.00 0.00 0.00 59 1014.5
20260509114621 47 230 4.0 5.0 0.00 0.00 0.00 60 1014.4
20260509113052 45 217 3.0 5.0 0.00 0.00 0.00 63 1014.5
20260509111545 44 232 2.0 5.0 0.00 0.00 0.00 64 1014.4
20260509110057 43 226 2.0 4.0 0.00 0.00 0.00 66 1014.5
20260509104541 42 202 2.0 5.0 0.00 0.00 0.00 69 1014.4
20260509103041 40 221 2.0 4.0 0.00 0.00 0.00 71 1014.1
20260509101559 39 355 0.0 0.0 0.00 0.00 0.00 71 1013.8
20260509100046 39 0 0.0 0.0 0.00 0.00 0.00 70 1013.6
20260509094546 40 0 0.0 0.0 0.00 0.00 0.00 67 1013.4
20260509093041 42 0 0.0 0.0 0.00 0.00 0.00 64 1013.3
20260509091544 41 0 0.0 0.0 0.00 0.00 0.00 65 1013.2
20260509090049 41 0 0.0 1.0 0.00 0.00 0.00 65 1012.9
20260509084552 41 355 1.0 2.0 0.00 0.00 0.00 65 1012.9
20260509083045 42 286 0.0 3.0 0.00 0.00 0.00 63 1012.8
20260509081548 42 278 1.0 3.0 0.00 0.00 0.00 64 1013.1
20260509080050 40 273 3.0 6.0 0.00 0.00 0.00 68 1013.3
20260509074543 39 228 1.0 4.0 0.00 0.00 0.00 68 1013.3
20260509073048 39 222 2.0 3.0 0.00 0.00 0.00 67 1013.1
20260509071543 40 265 2.0 3.0 0.00 0.00 0.00 65 1013.0
20260509070051 41 0 0.0 2.0 0.00 0.00 0.00 62 1013.0
20260509064553 42 0 0.0 3.0 0.00 0.00 0.00 60 1013.0
20260509063041 41 258 1.0 3.0 0.00 0.00 0.00 60 1012.9
20260509061601 42 242 2.0 3.0 0.00 0.00 0.00 58 1012.9
20260509060048 42 241 1.0 3.0 0.00 0.00 0.00 55 1012.8
20260509054606 42 0 0.0 0.0 0.00 0.00 0.00 53 1012.9
20260509053052 43 0 0.0 0.0 0.00 0.00 0.00 52 1012.7
20260509051544 43 0 0.0 0.0 0.00 0.00 0.00 55 1012.7
20260509050052 43 0 0.0 0.0 0.00 0.00 0.00 53 1012.7